Regional Weather Roundup
Issued by NWS Goodland, KS

Home | Current Version | Previous Version | Graphics & Text | Print | Product List | Glossary On
Versions: 1 2 3 4 5 6 7 8 9 10 11 12 13 14 15 16 17 18 19 20 21 22 23 24 25 26 27 28 29 30 31 32 33 34 35 36 37 38 39 40 41 42 43 44 45 46 47 48 49 50
000
ASUS43 KGLD 022208
RWRGLD

GOODLAND FORECAST AREA HOURLY WEATHER ROUNDUP
NATIONAL WEATHER SERVICE GOODLAND KS
300 PM MST FRI DEC 02 2016

...OFFICIAL OBSERVATIONS...

CITY           SKY/WX    TMP DP  RH WIND       PRES   REMARKS
GOODLAND KS    MOSUNNY   43  14  31 NE3       30.21S
HILL CITY KS   MOSUNNY   46  19  34 NE5       30.25F
IMPERIAL NEB   CLOUDY    42  23  46 CALM      30.23S
MCCOOK NEB     CLOUDY    42  24  49 CALM      30.25F
AKRON CO       CLOUDY    36  18  48 S3        30.19S
BURLINGTON CO  PTSUNNY   41  16  36 S7        30.20S
LIMON CO       CLOUDY    33  18  53 SE13      30.17R
$$

...UNOFFICIAL OBSERVATIONS...

CITY           SKY/WX    TMP DP  RH WIND       PRES   REMARKS
COLBY KS       SUNNY     45  19  36 NE3       30.23F
LENORA KS        N/A     46  32  58 MISG        N/A
NORTON KS      MOSUNNY   43  18  36 N5        30.24
SHARON SPRINGS   N/A     42  16  34 CALM        N/A
TRIBUNE KS     MOSUNNY   45  16  31 NE7       30.21
KIT CARSON CO    N/A     38  20  48 CALM        N/A
YUMA CO        CLOUDY    37  18  44 CALM      30.20S
$$




USA.gov is the U.S. government's official web portal to all federal, state and local government web resources and services.